This is the latest recevied weather packets stored in our database for station/object KM4KBD. If no packets are shown the sender has not sent any weather packets the latest 10 day(s).
| Time | Temp. | Humidity | Pressure | Rain* | Wind** | Luminosity | Snow |
|---|---|---|---|---|---|---|---|
| 1777364661 | 15° C | 99% | 1019.9 hPa | 7.87 mm | - | 0 W/m² | - |
| 1777364356 | 15° C | 99% | 1020.3 hPa | 7.11 mm | - | 0 W/m² | - |
| 1777364053 | 15° C | 99% | 1020.5 hPa | 7.87 mm | - | 0 W/m² | - |
| 1777363749 | 15° C | 99% | 1020.2 hPa | 6.1 mm | - | 0 W/m² | - |
| 1777363446 | 15° C | 99% | 1020 hPa | 4.32 mm | - | 0 W/m² | - |
| 1777363143 | 15° C | 99% | 1020 hPa | 3.05 mm | - | 0 W/m² | - |
| 1777362840 | 15° C | 99% | 1020.2 hPa | 1.78 mm | - | 0 W/m² | - |
| 1777362538 | 15° C | 99% | 1020.3 hPa | 4.83 mm | - | 0 W/m² | - |
| 1777362235 | 15° C | 99% | 1020.5 hPa | 7.87 mm | - | 0 W/m² | - |
| 1777361932 | 15° C | 99% | 1021 hPa | 10.16 mm | - | 0 W/m² | - |
| 1777361629 | 15° C | 99% | 1021.8 hPa | 10.67 mm | - | 0 W/m² | - |
| 1777361327 | 15° C | 99% | 1021.5 hPa | 7.87 mm | - | 0 W/m² | - |
| 1777361023 | 15° C | 99% | 1021 hPa | 4.83 mm | - | 0 W/m² | - |
| 1777360722 | 15° C | 99% | 1020.5 hPa | 3.05 mm | - | 0 W/m² | - |
| 1777360418 | 15° C | 99% | 1020.6 hPa | 3.05 mm | - | 0 W/m² | - |
| 1777360115 | 15° C | 99% | 1021.1 hPa | 3.05 mm | - | 0 W/m² | - |
| 1777359812 | 15° C | 99% | 1020.9 hPa | 3.05 mm | - | 0 W/m² | - |
| 1777359509 | 15° C | 99% | 1020.8 hPa | 3.05 mm | - | 0 W/m² | - |
| 1777359205 | 15° C | 99% | 1020.8 hPa | 6.1 mm | - | 0 W/m² | - |
| 1777358904 | 15° C | 99% | 1021.4 hPa | 13.72 mm | - | 0 W/m² | - |
| 1777358600 | 15° C | 99% | 1021.5 hPa | 40.89 mm | - | 0 W/m² | - |
| 1777358298 | 15° C | 99% | 1021.7 hPa | 48.51 mm | - | 0 W/m² | - |
| 1777357996 | 15.56° C | 99% | 1022.7 hPa | 21.59 mm | - | 0 W/m² | - |
| 1777357693 | 20° C | 79% | 1021.4 hPa | 1.78 mm | - | 0 W/m² | - |
| 1777357390 | 21.11° C | 71% | 1017.8 hPa | 0 mm | - | 0 W/m² | - |
* Rain latest hour (hover to see other rain measurements)
** Current wind speed in m/s (hover to see current wind gust speed)